TimeMDT,TemperatureF,Dew PointF,Humidity,Sea Level PressureIn,VisibilityMPH,Wind Direction,Wind SpeedMPH,Gust SpeedMPH,PrecipitationIn,Events,Conditions,WindDirDegrees,DateUTC
12:53 AM,42.1,37.0,82,30.01,10.0,South,6.9,-,N/A,,Clear,190,2013-06-20 06:53:00
1:53 AM,43.0,37.9,82,30.01,10.0,SW,6.9,-,N/A,,Clear,230,2013-06-20 07:53:00
2:53 AM,39.9,37.0,89,30.03,10.0,WSW,5.8,-,N/A,,Clear,240,2013-06-20 08:53:00
3:53 AM,39.9,37.0,89,30.02,10.0,WSW,6.9,-,N/A,,Clear,240,2013-06-20 09:53:00
4:53 AM,39.9,36.0,86,30.02,10.0,WSW,3.5,-,N/A,,Clear,240,2013-06-20 10:53:00
5:53 AM,37.9,35.1,89,30.03,10.0,South,3.5,-,N/A,,Clear,190,2013-06-20 11:53:00
6:53 AM,39.0,35.1,86,30.04,10.0,South,4.6,-,N/A,,Clear,180,2013-06-20 12:53:00
7:53 AM,45.0,37.9,76,30.03,10.0,South,4.6,-,N/A,,Clear,190,2013-06-20 13:53:00
8:53 AM,50.0,37.0,61,30.04,10.0,WSW,5.8,-,N/A,,Clear,240,2013-06-20 14:53:00
9:53 AM,54.0,37.0,53,30.04,10.0,WSW,6.9,-,N/A,,Clear,240,2013-06-20 15:53:00
10:53 AM,57.0,37.0,47,30.03,10.0,WSW,8.1,-,N/A,,Clear,250,2013-06-20 16:53:00
11:53 AM,59.0,36.0,42,30.02,10.0,Variable,5.8,-,N/A,,Clear,0,2013-06-20 17:53:00
12:53 PM,60.1,36.0,41,30.00,10.0,Variable,5.8,-,N/A,,Clear,0,2013-06-20 18:53:00
1:53 PM,62.1,35.1,37,29.98,10.0,North,5.8,-,N/A,,Clear,10,2013-06-20 19:53:00
2:53 PM,64.0,34.0,33,29.97,10.0,WNW,6.9,-,N/A,,Clear,290,2013-06-20 20:53:00
3:53 PM,66.0,33.1,29,29.94,10.0,Calm,Calm,-,N/A,,Clear,0,2013-06-20 21:53:00
4:53 PM,66.9,32.0,27,29.93,10.0,Variable,5.8,-,N/A,,Clear,0,2013-06-20 22:53:00
5:53 PM,66.9,30.0,25,29.93,10.0,North,5.8,-,N/A,,Clear,350,2013-06-20 23:53:00
6:53 PM,66.0,30.0,26,29.92,10.0,Variable,5.8,-,N/A,,Clear,0,2013-06-21 00:53:00
7:53 PM,64.0,30.0,28,29.91,10.0,NW,6.9,-,N/A,,Clear,320,2013-06-21 01:53:00
8:53 PM,59.0,33.1,38,29.91,10.0,NW,5.8,-,N/A,,Clear,320,2013-06-21 02:53:00
9:53 PM,54.0,34.0,47,29.92,10.0,Calm,Calm,-,N/A,,Clear,0,2013-06-21 03:53:00
10:53 PM,53.1,34.0,48,29.93,10.0,Calm,Calm,-,N/A,,Mostly Cloudy,0,2013-06-21 04:53:00
11:53 PM,51.1,41.0,68,29.93,10.0,SSW,3.5,-,N/A,,Partly Cloudy,200,2013-06-21 05:53:00